EW4174 Weather Reports


Display with metric or nautical units.
time (UTC)temp
F
wind
direction
speed
MPH
gust
MPH
rain 1hr
in
rain 24hr
in
rain mn
in
humidity
%
barometer
mb
20260509023038 74 103 1.0 2.0 0.00 0.00 0.00 91 1007.8
20260509021533 74 103 2.0 4.0 0.00 0.00 0.00 91 1007.6
20260509020032 74 103 3.0 6.0 0.00 0.00 0.00 91 1007.6
20260509014531 75 102 4.0 8.0 0.00 0.00 0.00 90 1007.5
20260509013034 75 92 4.0 7.0 0.00 0.00 0.00 90 1007.5
20260509011530 75 90 3.0 7.0 0.00 0.00 0.00 90 1007.4
20260509010029 75 86 3.0 8.0 0.00 0.00 0.00 89 1007.1
20260509004536 75 86 3.0 7.0 0.00 0.00 0.00 89 1007.2
20260509003029 75 87 4.0 8.0 0.00 0.00 0.00 89 1007.2
20260509001528 76 92 5.0 8.0 0.00 0.00 0.00 89 1007.1
20260509000035 76 90 4.0 8.0 0.00 0.00 0.00 89 1007.1
20260508234535 76 88 4.0 7.0 0.00 0.00 0.00 89 1007.2
20260508233027 76 90 3.0 8.0 0.00 0.00 0.00 88 1007.1
20260508231523 76 101 6.0 8.0 0.00 0.00 0.00 88 1007.1
20260508230023 76 101 4.0 8.0 0.00 0.00 0.00 88 1007.1
20260508224523 76 101 3.0 8.0 0.00 0.00 0.00 88 1007.1
20260508223024 76 105 4.0 7.0 0.00 0.00 0.00 88 1007.2
20260508221518 76 104 5.0 9.0 0.00 0.00 0.00 88 1007.4
20260508220017 76 92 5.0 8.0 0.00 0.00 0.00 87 1007.5
20260508214516 76 74 4.0 10.0 0.00 0.00 0.00 87 1007.6
20260508213022 76 108 4.0 9.0 0.00 0.00 0.00 87 1007.8
20260508211511 75 71 4.0 9.0 0.00 0.00 0.00 88 1007.9
20260508210010 75 82 5.0 10.0 0.00 0.00 0.00 87 1008.1
20260508204509 75 73 5.0 9.0 0.00 0.00 0.00 87 1008.3
20260508203005 74 73 4.0 8.0 0.00 0.00 0.00 87 1008.5
20260508201612 74 74 4.0 8.0 0.00 0.00 0.00 88 1008.8
20260508200057 72 69 1.0 4.0 0.00 0.00 0.00 88 1008.9
20260508194619 72 69 3.0 5.0 0.00 0.00 0.00 88 1009.2
20260508193049 71 69 2.0 5.0 0.00 0.00 0.00 88 1009.4
20260508191546 71 68 2.0 4.0 0.00 0.00 0.00 87 1009.8
20260508190043 70 68 2.0 4.0 0.00 0.00 0.00 87 1009.9
20260508184542 70 68 3.0 5.0 0.00 0.00 0.00 87 1009.9
20260508183040 70 68 3.0 6.0 0.00 0.00 0.00 87 1010.2
20260508181557 69 55 2.0 5.0 0.00 0.00 0.00 87 1010.4
20260508180037 69 56 3.0 5.0 0.00 0.00 0.00 86 1010.4
20260508174540 69 49 3.0 5.0 0.00 0.00 0.00 86 1010.7
20260508173131 68 51 1.0 5.0 0.00 0.00 0.00 86 1010.9
20260508171533 68 50 3.0 6.0 0.00 0.00 0.00 86 1011.0
20260508170029 68 50 3.0 6.0 0.00 0.00 0.00 86 1011.0
20260508164524 67 46 2.0 6.0 0.00 0.00 0.00 87 1011.2
20260508163021 67 30 3.0 6.0 0.00 0.00 0.00 86 1011.2
20260508161523 67 360 3.0 8.0 0.00 0.00 0.00 87 1011.4
20260508160018 66 360 3.0 6.0 0.00 0.00 0.00 87 1011.6
20260508154512 66 360 2.0 6.0 0.00 0.00 0.00 87 1011.7
20260508153008 66 355 3.0 8.0 0.00 0.00 0.00 87 1011.8
20260508151507 65 355 2.0 8.0 0.00 0.00 0.00 87 1012.0
20260508150009 65 5 3.0 9.0 0.00 0.00 0.00 87 1012.1
20260508144505 65 11 4.0 6.0 0.00 0.00 0.00 87 1012.0
20260508143012 65 24 3.0 6.0 0.00 0.00 0.00 88 1012.2
20260508141502 64 27 4.0 9.0 0.00 0.00 0.00 88 1012.0
20260508140002 64 11 4.0 9.0 0.00 0.00 0.00 89 1012.2
20260508134605 64 16 4.0 9.0 0.00 0.00 0.00 90 1012.0
20260508133112 63 29 3.0 6.0 0.00 0.00 0.00 90 1012.0
20260508131559 63 13 3.0 8.0 0.00 0.00 0.00 90 1012.0
20260508130058 63 5 2.0 5.0 0.00 0.00 0.00 90 1012.0
20260508124557 63 5 1.0 4.0 0.00 0.00 0.00 90 1012.1
20260508123102 63 5 3.0 5.0 0.00 0.00 0.00 90 1011.8
20260508121557 63 5 1.0 6.0 0.00 0.00 0.00 90 1011.8
20260508120055 63 5 4.0 9.0 0.00 0.00 0.00 89 1012.0
20260508114553 63 347 5.0 8.0 0.00 0.00 0.00 89 1012.2
20260508113053 63 22 2.0 6.0 0.00 0.00 0.00 88 1012.3
20260508111555 64 27 2.0 4.0 0.00 0.00 0.00 87 1012.5
20260508110051 64 27 2.0 4.0 0.00 0.00 0.00 86 1012.3
20260508104549 64 23 3.0 4.0 0.00 0.00 0.00 85 1011.7
20260508103049 64 14 4.0 6.0 0.00 0.00 0.00 84 1011.9
20260508101548 63 360 5.0 8.0 0.00 0.00 0.00 84 1012.3
20260508100046 63 349 4.0 8.0 0.00 0.00 0.00 84 1012.6
20260508094551 63 342 4.0 9.0 0.00 0.00 0.00 84 1012.7
20260508093147 63 355 4.0 8.0 0.00 0.00 0.00 84 1012.6
20260508091544 63 17 3.0 8.0 0.00 0.00 0.00 84 1012.0
20260508090044 63 11 4.0 8.0 0.00 0.00 0.00 84 1011.9
20260508084541 63 16 3.0 8.0 0.00 0.00 0.00 83 1012.0
20260508083039 63 360 4.0 9.0 0.00 0.00 0.00 83 1012.3
20260508081538 64 337 6.0 10.0 0.00 0.00 0.00 83 1012.5
20260508080036 64 360 5.0 8.0 0.00 0.00 0.00 83 1012.0
20260508074537 64 26 4.0 6.0 0.00 0.00 0.00 83 1012.1
20260508073032 64 40 2.0 4.0 0.00 0.00 0.00 82 1012.5
20260508071533 64 44 3.0 7.0 0.00 0.00 0.00 82 1012.5
20260508070030 64 42 3.0 6.0 0.00 0.00 0.00 82 1012.5
20260508064529 64 360 1.0 5.0 0.00 0.00 0.00 82 1013.2
20260508063028 64 360 3.0 6.0 0.00 0.00 0.00 81 1013.2
20260508061529 64 315 5.0 9.0 0.00 0.00 0.00 81 1014.2
20260508060028 64 321 7.0 11.0 0.00 0.00 0.00 81 1014.1
20260508054524 64 355 2.0 5.0 0.00 0.00 0.00 82 1013.7
20260508053022 64 51 3.0 10.0 0.00 0.00 0.00 81 1013.1
20260508051525 64 23 5.0 10.0 0.00 0.00 0.00 82 1012.4
20260508050016 64 42 4.0 7.0 0.00 0.00 0.00 82 1012.5
20260508044513 65 12 3.0 9.0 0.00 0.00 0.00 81 1012.8
20260508043016 65 5 4.0 9.0 0.00 0.00 0.00 81 1013.1
20260508041512 65 355 4.0 11.0 0.00 0.00 0.00 81 1013.2
20260508040013 65 355 5.0 10.0 0.00 0.00 0.00 82 1013.6
20260508034511 65 337 5.0 8.0 0.00 0.00 0.00 83 1013.8
20260508033010 65 346 2.0 4.0 0.00 0.00 0.00 82 1013.5
20260508031510 65 346 1.0 4.0 0.00 0.00 0.00 82 1012.9
20260508030009 65 346 4.0 8.0 0.00 0.00 0.00 81 1012.8
20260508024511 66 40 2.0 5.0 0.00 0.00 0.00 80 1012.4